Miscellaneous Local Product
Issued by NWS North Platte, NE

Home | Current Version | Previous Version | Text Only | Print | Product List | Glossary On
Versions: 1 2 3 4 5 6 7 8 9 10 11 12 13 14 15 16 17 18 19 20 21 22 23 24 25 26 27 28 29 30 31 32 33 34 35 36 37 38 39 40 41 42 43 44 45 46 47 48 49 50
193
AXUS43 KLBF 041510
MISLBF


WESTERN AND NORTH CENTRAL NEBRASKA HOURLY WEATHER ROUNDUP
NATIONAL WEATHER SERVICE NORTH PLATTE NE
1000 AM CDT WED MAY 04 2016

NOTE: "FAIR" INDICATES FEW OR NO CLOUDS BELOW 12,000 FEET WITH NO
SIGNIFICANT WEATHER AND/OR OBSTRUCTIONS TO VISIBILITY.

NOTE: STATIONS NOT REPORTING VARIABLES SUCH AS SKY/WEATHER OR
PRESSURE ARE PROVIDED BY RAWS AND APRS NETWORKS AND ARE NOT UNDER
NATIONAL WEATHER SERVICE QUALITY CONTROL.

...OBSERVATIONS IN AND NEAR THE EASTERN PANHANDLE OF NEBRASKA...

CITY           SKY/WX    TMP DP  RH WIND       PRES   REMARKS
PINE RIDGE       N/A     57  44  62 VRB3      30.18F
CHADRON        SUNNY     58  44  60 SW3       30.19S
ALLIANCE       SUNNY     60  43  53 N6        30.20S
SIDNEY         SUNNY     60  45  57 NW9       30.22S
CRESCENT LAKE    N/A     63  44  49 N6          N/A
BIG SPRINGS      N/A     49  43  79 W3          N/A
$$

...OBSERVATIONS IN NORTHERN NEBRASKA AND FAR SOUTHERN SOUTH DAKOTA...

CITY           SKY/WX    TMP DP  RH WIND       PRES   REMARKS
WINNER         FAIR      57  37  47 NW5       30.15S
VALENTINE      SUNNY     59  31  34 W3        30.16S
THEDFORD       SUNNY     60  37  42 N3        30.17S
AINSWORTH      SUNNY     58  33  38 NW7       30.15F
O`NEILL        SUNNY     57  33  40 N12       30.14S
ORD            SUNNY     58  37  45 NW12      30.12R
BROKEN BOW     SUNNY     59  34  39 N14       30.13F
VALENTINE NWR    N/A     57  36  46 N5          N/A
BUTTE            N/A     54  35  49 NW9         N/A
HALSEY           N/A     58  41  53 NW3         N/A
CHAMBERS         N/A     60  36  41 N3          N/A
EWING            N/A     57  39  52 N8          N/A
$$

...OBSERVATIONS IN SOUTHWEST NEBRASKA AND FAR NORTHEAST COLORADO...

CITY           SKY/WX    TMP DP  RH WIND       PRES   REMARKS
HOLYOKE        FAIR      66  45  45 N7        30.20R
IMPERIAL       SUNNY     62  43  49 N10       30.19R
OGALLALA       SUNNY     62  40  44 CALM      30.19R
NORTH PLATTE   SUNNY     59  44  57 W5        30.16S
MCCOOK         SUNNY     62  42  47 CALM      30.16S
LEXINGTON      SUNNY     59  38  46 N10       30.14S
PAXTON           N/A     52  48  86 CALM        N/A
STAPLETON        N/A     61  43  50 CALM        N/A
GOTHENBURG       N/A     55  41  59 NW3         N/A
CALLAWAY         N/A     55  40  58 N6          N/A
$$

...OBSERVATIONS IN CENTRAL LINCOLN COUNTY AREA...

CITY           SKY/WX    TMP DP  RH WIND       PRES   REMARKS
N.P. AIRPORT   SUNNY     59  44  57 W5        30.16S
N.P. DOWNTOWN    N/A     58  44  60 CALM        N/A
N.P. SOUTHEAST   N/A     58  42  56 CALM        N/A
N.P. HILLCREST   N/A     58  47  66 W3          N/A
$$

...SOME OBSERVATIONS FROM AROUND THE REGION...

CITY           SKY/WX    TMP DP  RH WIND       PRES   REMARKS
DENVER         SUNNY     59  31  34 W12       30.27R
LARAMIE        SUNNY     47  33  58 S5        30.32F
CHEYENNE       SUNNY     58  35  42 W5        30.28S
SCOTTSBLUFF    SUNNY     57  43  59 NW9       30.21F
RAPID CITY     SUNNY     63  42  46 SW3       30.16F
BISMARCK       SUNNY     58  36  43 SE5       30.12F
PIERRE         SUNNY     56  36  47 CALM      30.13F
SIOUX FALLS    SUNNY     56  37  49 NE8       30.09R
OMAHA          SUNNY     57  40  52 N12       30.05R
GRAND ISLAND   SUNNY     58  37  45 N13       30.12R
KANSAS CITY    SUNNY     60  41  49 N15       29.97R
WICHITA        SUNNY     65  44  46 N13       30.05R
OKLAHOMA CITY  SUNNY     68  49  50 NW14      30.06S
DALLAS         SUNNY     70  54  56 W15       30.07S
AMARILLO       SUNNY     62  38  40 NW13      30.22S
DODGE CITY     SUNNY     64  43  46 NW12      30.14R
HAYS           SUNNY     63  41  45 N10       30.13R
GOODLAND       SUNNY     64  41  42 NW10      30.19S
$$




USA.gov is the U.S. government's official web portal to all federal, state and local government web resources and services.